TimeCDT,TemperatureF,Dew PointF,Humidity,Sea Level PressureIn,VisibilityMPH,Wind Direction,Wind SpeedMPH,Gust SpeedMPH,PrecipitationIn,Events,Conditions,WindDirDegrees,DateUTC
12:52 AM,63.0,62.1,97,29.88,10.0,NW,5.8,-,N/A,,Clear,320,2013-08-31 05:52:00
1:52 AM,63.0,63.0,100,29.88,10.0,NNW,3.5,-,N/A,,Clear,340,2013-08-31 06:52:00
2:52 AM,61.0,61.0,100,29.86,10.0,NW,5.8,-,N/A,,Clear,320,2013-08-31 07:52:00
3:52 AM,62.1,61.0,96,29.86,9.0,NNW,4.6,-,N/A,,Clear,330,2013-08-31 08:52:00
4:52 AM,61.0,61.0,100,29.86,9.0,NW,5.8,-,N/A,,Clear,320,2013-08-31 09:52:00
5:52 AM,60.1,60.1,100,29.88,9.0,NNW,4.6,-,N/A,,Clear,330,2013-08-31 10:52:00
6:52 AM,61.0,61.0,100,29.89,7.0,North,3.5,-,N/A,,Clear,350,2013-08-31 11:52:00
7:52 AM,62.1,62.1,100,29.88,6.0,WNW,3.5,-,N/A,,Clear,300,2013-08-31 12:52:00
8:52 AM,66.9,66.9,100,29.87,8.0,Calm,Calm,-,N/A,,Clear,0,2013-08-31 13:52:00
9:52 AM,73.9,66.9,79,29.86,10.0,Calm,Calm,-,N/A,,Clear,0,2013-08-31 14:52:00
10:52 AM,77.0,68.0,74,29.86,10.0,South,3.5,-,N/A,,Clear,180,2013-08-31 15:52:00
11:52 AM,79.0,68.0,69,29.86,10.0,Variable,4.6,-,N/A,,Clear,0,2013-08-31 16:52:00
12:52 PM,82.9,69.1,63,29.84,10.0,Variable,3.5,-,N/A,,Clear,0,2013-08-31 17:52:00
1:52 PM,84.0,68.0,58,29.83,10.0,Calm,Calm,-,N/A,,Clear,0,2013-08-31 18:52:00
2:52 PM,86.0,68.0,55,29.82,10.0,Calm,Calm,-,N/A,,Clear,0,2013-08-31 19:52:00
3:52 PM,88.0,66.9,49,29.81,10.0,South,4.6,-,N/A,,Clear,180,2013-08-31 20:52:00
4:52 PM,87.1,66.9,51,29.79,10.0,South,4.6,-,N/A,,Clear,170,2013-08-31 21:52:00
5:52 PM,84.9,68.0,57,29.76,10.0,South,8.1,-,N/A,,Clear,180,2013-08-31 22:52:00
6:52 PM,82.0,71.1,69,29.78,10.0,SSW,3.5,-,N/A,,Clear,200,2013-08-31 23:52:00
7:52 PM,79.0,71.1,77,29.81,10.0,Calm,Calm,-,N/A,,Clear,0,2013-09-01 00:52:00
8:52 PM,73.9,71.1,91,29.83,9.0,Calm,Calm,-,N/A,,Clear,0,2013-09-01 01:52:00
9:52 PM,72.0,68.0,87,29.82,10.0,East,4.6,-,N/A,,Partly Cloudy,90,2013-09-01 02:52:00
10:52 PM,72.0,69.1,91,29.84,10.0,NW,11.5,-,N/A,,Clear,310,2013-09-01 03:52:00
11:49 PM,73.4,69.8,88,29.84,10.0,SSW,3.5,-,N/A,,Clear,200,2013-09-01 04:49:00
11:52 PM,73.0,69.1,87,29.82,10.0,Calm,Calm,-,N/A,,Partly Cloudy,0,2013-09-01 04:52:00